Weather History for St. Petersburg, FL

Change the Weather History Date:

Saturday, July 12, 2014

  Actual Average Record
Temperature  
Mean Temperature 84 °F -  
Max Temperature 90 °F 90 °F 96 °F (1987)
Min Temperature 79 °F 76 °F 70 °F (1953)
Cooling Degree Days 20    
Growing Degree Days 34 (Base 50)    
Moisture  
Dew Point 75 °F    
Average Humidity 77    
Maximum Humidity 90    
Minimum Humidity 59    
Precipitation  
Precipitation 0.01 in - - ()
Sea Level Pressure  
Sea Level Pressure 30.10 in    
Wind  
Wind Speed 10 mph (East)    
Max Wind Speed 21 mph    
Max Gust Speed 25 mph    
Visibility 10 miles    
Events Rain , Thunderstorm    
Averages and records for this station are not official NWS values.
T = Trace of Precipitation, MM = Missing Value Source: NWS Daily Summary

Daily Weather History Graph

Daily Weather History Graph

Search for Another Location

Airport:

Trip Planner

Search our weather history database for the weather conditions in past years. The results will help you decide how hot, cold, wet, or windy it might be!

Date:

Astronomy

Jul. 12, 2014 Rise Set
Actual Time 6:42 AM EDT 8:29 PM EDT
Civil Twilight 6:16 AM EDT 8:55 PM EDT
Nautical Twilight 5:45 AM EDT 9:26 PM EDT
Astronomical Twilight 5:11 AM EDT 10:00 PM EDT
Moon 8:39 PM EDT (7/12) 6:53 AM EDT (7/12)
Length of Visible Light 14h 38m
Length of Day
13h 46m
Full, 100% of the Moon is Illuminated
Jul 12
Full
Jul 18
Last Quarter
Jul 26
New
Aug 3
First Quarter
Aug 10
Full

Hourly Weather History & Observations

Time (EDT) Temp. Heat Index Dew Point Humidity Pressure Visibility Wind Dir Wind Speed Gust Speed Precip Events Conditions
12:53 AM 81.0 °F 86.7 °F 75.0 °F 82% 30.13 in 10.0 mi East 13.8 mph - N/A   Clear
1:53 AM 81.0 °F 86.7 °F 75.0 °F 82% 30.12 in 10.0 mi East 12.7 mph - N/A   Clear
2:53 AM 80.1 °F 85.1 °F 75.0 °F 85% 30.10 in 10.0 mi SE 12.7 mph - N/A   Clear
3:53 AM 80.1 °F 85.4 °F 75.9 °F 87% 30.08 in 10.0 mi SSE 15.0 mph - N/A   Partly Cloudy
4:53 AM 79.0 °F - 75.0 °F 88% 30.07 in 10.0 mi SE 4.6 mph - N/A   Clear
5:53 AM 79.0 °F - 75.0 °F 88% 30.08 in 10.0 mi East 4.6 mph - N/A   Clear
6:53 AM 79.0 °F - 75.9 °F 90% 30.09 in 10.0 mi ESE 6.9 mph - N/A   Clear
7:53 AM 80.1 °F 85.8 °F 77.0 °F 90% 30.09 in 10.0 mi SE 11.5 mph - N/A   Clear
8:53 AM 82.0 °F 90.2 °F 77.0 °F 85% 30.12 in 10.0 mi SSE 12.7 mph - N/A   Clear
9:53 AM 82.0 °F 89.4 °F 75.9 °F 82% 30.12 in 10.0 mi SE 6.9 mph - N/A   Clear
10:53 AM 84.9 °F 94.1 °F 75.9 °F 74% 30.13 in 10.0 mi ESE 5.8 mph - N/A   Clear
11:53 AM 86.0 °F 96.9 °F 77.0 °F 74% 30.13 in 10.0 mi East 3.5 mph - N/A   Clear
1:53 PM 88.0 °F 97.5 °F 75.0 °F 65% 30.11 in 10.0 mi East 3.5 mph - N/A   Clear
2:35 PM 90.0 °F 99.0 °F 73.9 °F 59% 30.09 in 10.0 mi ESE 4.6 mph - N/A Thunderstorm Clear
2:53 PM 89.1 °F 98.0 °F 73.9 °F 61% 30.09 in 10.0 mi NNW 3.5 mph - N/A   Clear
3:53 PM 88.0 °F 96.5 °F 73.9 °F 63% 30.08 in 10.0 mi NNW 6.9 mph - N/A   Clear
4:53 PM 89.1 °F 97.0 °F 73.0 °F 59% 30.08 in 10.0 mi North 4.6 mph - N/A   Partly Cloudy
5:53 PM 88.0 °F 96.5 °F 73.9 °F 63% 30.09 in 10.0 mi NE 10.4 mph - N/A Thunderstorm Clear
6:05 PM 87.1 °F 96.3 °F 75.0 °F 67% 30.09 in 10.0 mi NNE 10.4 mph - N/A   Mostly Cloudy
6:17 PM 86.0 °F 93.0 °F 73.0 °F 65% 30.08 in 10.0 mi NNE 9.2 mph - 0.00 in Rain , Thunderstorm Light Thunderstorms and Rain
6:28 PM 84.9 °F 93.3 °F 75.0 °F 72% 30.08 in 10.0 mi NE 20.7 mph 25.3 mph 0.00 in Rain Light Rain
6:53 PM 81.0 °F 86.7 °F 75.0 °F 82% 30.09 in 10.0 mi East 19.6 mph - 0.01 in   Clear
7:53 PM 79.0 °F - 73.0 °F 82% 30.09 in 10.0 mi East 9.2 mph - 0.00 in Rain Light Rain
8:53 PM 79.0 °F - 75.0 °F 88% 30.09 in 10.0 mi East 9.2 mph - 0.00 in   Clear
9:53 PM 79.0 °F - 73.9 °F 84% 30.08 in 10.0 mi ENE 10.4 mph - N/A   Clear
10:53 PM 80.1 °F 85.1 °F 75.0 °F 85% 30.09 in 10.0 mi East 8.1 mph - N/A   Clear
11:53 PM 79.0 °F - 73.9 °F 84% 30.11 in 10.0 mi ESE 8.1 mph - N/A   Clear